Home > Weather > Dubrovnik > Past weeks

Flag for Croatia Weather for the Past 2 Weeks in Dubrovnik, Croatia

Now
64 °F

Passing clouds.


Feels Like: 64 °F
Forecast: 51 / 57 °F
Wind: 8 mph from Northwest

Location: Dubrovnik / Cilipi

Current Time: Apr 30, 2016 at 5:32:20 PM

Latest Report: Apr 30, 2016 at 5:00 PM


Visibility: N/A

Pressure: 30.01 "Hg

Humidity: 68%

Dew Point: 54 °F

Location of DubrovnikLocation

Historic Weather in Dubrovnik — Graph

°F

Dubrovnik Temperature Yesterday

Maximum temperature yesterday: 64 °F (at 2:00 PM)
Minimum temperature yesterday: 52 °F (at 9:30 AM)
Average temperature yesterday: 58 °F

High & Low Weather Summary for the Past Weeks

 TemperatureHumidityPressure
High77 °F (Apr 18, 12:00 PM)100% (Apr 19, 7:00 PM)30.27 "Hg (Apr 19, 7:00 PM)
Low45 °F (Apr 25, 7:00 PM)11% (Apr 18, 1:30 PM)29.47 "Hg (Apr 25, 4:30 AM)
Average60 °F63%29.95 "Hg
* Reported Apr 15 4:00 PM — Apr 30 4:30 PM, Dubrovnik, Weather by CustomWeather, © 2016

Note: Actual official high and low records may vary slightly from our data, if they occured in-between our weather recording intervals... More about our weather records

Advertising

Dubrovnik Weather History for the Previous 24 Hours

Scroll right to see more
 ConditionsComfort  
Time TempWeatherWind HumidityBarometerVisibility
4:30 PM
Sat, Apr 30
64 °FPassing clouds.9 mph64%30.01 "HgN/A
4:00 PM64 °FPassing clouds.8 mph68%30.01 "HgN/A
3:30 PM64 °FPassing clouds.9 mph68%30.01 "HgN/A
3:00 PM66 °FPassing clouds.7 mph60%30.01 "HgN/A
2:30 PM64 °FPassing clouds.7 mph64%30.04 "HgN/A
2:00 PM64 °FPassing clouds.8 mph68%30.04 "HgN/A
1:30 PM64 °FPassing clouds.7 mph73%30.04 "HgN/A
1:00 PM64 °FPassing clouds.7 mph73%30.04 "HgN/A
12:30 PM64 °FPassing clouds.7 mph73%30.04 "HgN/A
12:00 PM66 °FPassing clouds.6 mph68%30.04 "HgN/A
11:30 AM64 °FPassing clouds.5 mph64%30.07 "HgN/A
11:00 AM64 °FPassing clouds.7 mph64%30.07 "HgN/A
10:30 AM64 °FPassing clouds.6 mph64%30.07 "HgN/A
10:00 AM64 °FPassing clouds.5 mph64%30.04 "HgN/A
9:00 AM64 °FSunny.2 mph64%30.04 "Hg10 mi
8:30 AM63 °FSunny.1 mph59%30.04 "Hg10 mi
8:00 AM63 °FSunny.2 mph64%30.04 "Hg10 mi
7:30 AM59 °FPassing clouds.3 mph68%30.04 "HgN/A
7:00 AM57 °FPassing clouds.6 mph67%30.04 "HgN/A
6:30 AM55 °FClear.8 mph72%30.04 "Hg10 mi
6:00 AM55 °FClear.6 mph72%30.04 "Hg10 mi
5:30 AM57 °FPassing clouds.7 mph67%30.01 "HgN/A
5:00 AM57 °FPassing clouds.10 mph67%30.01 "HgN/A
4:30 AM57 °FPassing clouds.10 mph67%30.01 "HgN/A
4:00 AM55 °FPassing clouds.13 mph72%30.01 "HgN/A
3:30 AM57 °FPassing clouds.13 mph67%30.01 "HgN/A
3:00 AM57 °FPassing clouds.10 mph67%30.01 "HgN/A
2:30 AM57 °FPassing clouds.10 mph67%30.01 "HgN/A
2:00 AM57 °FPassing clouds.10 mph67%30.01 "HgN/A
1:30 AM57 °FClear.8 mph67%30.04 "Hg10 mi
1:00 AM57 °FPassing clouds.5 mph72%30.04 "HgN/A
12:30 AM55 °FClear.3 mph88%30.04 "Hg10 mi
12:00 AM55 °FPassing clouds.7 mph94%30.04 "HgN/A
11:30 PM
Fri, Apr 29
55 °FPassing clouds.7 mph94%30.04 "HgN/A
11:00 PM55 °FPassing clouds.3 mph94%30.04 "HgN/A
10:30 PM57 °FPassing clouds.5 mph88%30.04 "HgN/A
10:00 PM55 °FClear.8 mph94%30.04 "Hg10 mi
9:30 PM55 °FClear.7 mph94%30.04 "Hg10 mi
9:00 PM55 °FPassing clouds.8 mph94%30.04 "HgN/A
8:30 PM57 °FPassing clouds.8 mph88%30.04 "HgN/A
8:00 PM57 °FPassing clouds.12 mph94%30.04 "HgN/A
7:30 PM59 °FSunny.12 mph82%30.01 "Hg10 mi
7:00 PM59 °FPassing clouds.10 mph77%30.01 "HgN/A
6:30 PM61 °FSunny.12 mph72%30.01 "Hg10 mi
6:00 PM61 °FPassing clouds.9 mph72%30.01 "HgN/A
5:30 PM63 °FPassing clouds.8 mph73%30.01 "HgN/A
5:00 PM61 °FPassing clouds.7 mph77%30.01 "HgN/A
Weather by CustomWeather, © 2016

See weather overviewHow to use our weather pages